Regional Weather Roundup
Issued by NWS Green Bay, WI

Home | Current Version | Previous Version | Text Only | Print | Product List | Glossary On
Versions: 1 2 3 4 5 6 7 8 9 10 11 12 13 14 15 16 17 18 19 20 21 22 23 24 25 26 27 28 29 30 31 32 33 34 35 36 37 38 39 40 41 42 43 44 45 46 47 48 49 50
579
ASUS43 KGRB 310011
RWRGRB

NORTH-CENTRAL AND NORTHEAST WISCONSIN REGIONAL WEATHER ROUNDUP
NATIONAL WEATHER SERVICE GREEN BAY WI
700 PM CDT TUE AUG 30 2016

WIZ005-009-010>012-018-019-310100-
NORTH CENTRAL WISCONSIN

CITY           SKY/WX    TMP DP  RH WIND       PRES   REMARKS
IRONWOOD       CLEAR     68  53  58 CALM      30.13F
MANITOWISH WTR CLEAR     66  48  51 N5        30.14S
ARBOR VITAE    CLEAR     67  49  51 N7        30.13S
EAGLE RIVER    CLEAR     68  51  54 NW5       30.12S
LAND O LAKES   CLEAR     67  50  53 N10       30.14R
RHINELANDER    CLEAR     71  57  61 NW7       30.12S
PHILLIPS       CLEAR     71  58  63 CALM      30.12S
ANTIGO         PTCLDY    71  58  62 N7        30.09F
TOMAHAWK       CLEAR     71  56  58 NW6       30.12S
MERRILL        CLEAR     74  60  63 NW5       30.10F
$$

WIZ013-073-310100-
NORTHEAST WISCONSIN

CITY           SKY/WX    TMP DP  RH WIND       PRES   REMARKS
IRON MOUNTAIN  CLEAR     74  57  55 NW8       30.06S
MARINETTE      CLOUDY   N/A N/A N/A MISG      30.03S
OCONTO         MOCLDY    76  67  73 N7        30.02F
$$

WIZ017-030-035>037-045-310100-
CENTRAL WISCONSIN

CITY           SKY/WX    TMP DP  RH WIND       PRES   REMARKS
MEDFORD        CLEAR     70  60  69 NW6       30.11F
WAUSAU         PTCLDY    75  60  59 NW9       30.07F
MOSINEE        CLEAR     73  64  73 NW6       30.09F
MARSHFIELD     CLEAR     74  61  63 NW8       30.09F
WISC RAPIDS    CLEAR     76  64  66 N7        30.08F
STEVENS POINT  PTCLDY    74  62  65 CALM      30.07F
WAUPACA        CLEAR     82  65  56 W7        30.04F
SHAWANO        CLOUDY    79  65  62 NW8       30.05S
CLINTONVILLE   PTCLDY    79  63  57 N7        30.03F
WAUTOMA        PTCLDY    79  67  66 W7        30.05F
$$

WIZ038-039-048-051-310100-
FOX VALLEY

CITY           SKY/WX    TMP DP  RH WIND       PRES   REMARKS
NWS GREEN BAY  CLOUDY    78  69  73 W6        30.01F
APPLETON       MOCLDY    81  61  50 W6        30.02F
OSHKOSH        PTCLDY    79  66  64 W3        30.03F
FOND DU LAC    MOCLDY    79  66  64 W7        30.03F
$$

WIZ022-050-052-310100-
EAST CENTRAL WISCONSIN

CITY           SKY/WX    TMP DP  RH WIND       PRES   REMARKS
EPHRAIM        MOCLDY    75  66  75 N5        30.02S
WASHINGTON ISL NOT AVBL
STURGEON BAY   CLOUDY    77  69  76 N3        30.02F
MANITOWOC      PTCLDY    80  68  66 W5        30.01F
SHEBOYGAN      MOCLDY    76  67  73 W3        30.02F
$$

LMZ563-521-522-541>543-310100-
LAKESHORE

STATION/POSITION TIME  TEMP    WIND        PRES    VSBY  WAVE
                       AIR SEA DIR/SP/G                  HT/PER
                 (UTC) (F)     (DEG/KT/KT) (MB)    (MI)  (FT/S)
SHEBOYGAN LKSHOR 0000   81     280/  3/  5 1015.6F
KEWAUNEE LKSHORE 2300   70                 1016.0F
NORTHPORT PIER   2300   76     300/  2/  5 1016.6R
N MID LAKE BUOY  2350   73 72  340/ 10/ 12 1015.9S         1
S GREEN BAY BUOY 2330   78 76  320/  6/  8 1016.0F
SISTER BAY LKSHO 2337   77      10/  8/ 10   N/A
CHAMBERS ISLAND  2300   78     330/  3/  4 1016.3R
MENOMINEE LKSHOR 2300   76                 1015.7F
$$




USA.gov is the U.S. government's official web portal to all federal, state and local government web resources and services.